Location: Aix-en-Ergny
(50.5839°N, 1.9996°E)
Time: 00:30:17
(UTC+00:00)

Spot 2 - Pass Details

Date: 23 October 2019
Orbit: 569 x 775 km, 98.7° (Epoch: 11 November)

Event Time Altitude Azimuth Distance (km) Brightness Sun altitude
Rises 03:43:12 0° 16° (NNE) 2,787 7.8 -26.5°
Reaches altitude 10° 03:45:21 10° 18° (NNE) 1,886 6.9 -26.2°
Enters shadow 03:48:39 57° 35° (NE) 685 4.4 -25.7°
